| time (UTC) | temp F | wind direction | speed MPH | gust MPH | rain 1hr in | rain 24hr in | rain mn in | humidity % | barometer mb |
| 20260506050113 | 43 | 231 | 0.0 | 0.0 | 0.00 | 0.00 | 0.00 | 6 | 1010.7 |
| 20260506044608 | 41 | 231 | 0.0 | 0.0 | 0.00 | 0.00 | 0.00 | 7 | 1010.4 |
| 20260506043004 | 41 | 231 | 0.0 | 0.0 | 0.00 | 0.00 | 0.00 | 8 | 1010.3 |
| 20260506041529 | 41 | 230 | 0.0 | 0.0 | 0.00 | 0.00 | 0.00 | 8 | 1010.3 |
| 20260506040039 | 41 | 231 | 0.0 | 0.0 | 0.00 | 0.00 | 0.00 | 9 | 1010.4 |
| 20260506034546 | 40 | 230 | 0.0 | 0.0 | 0.00 | 0.00 | 0.00 | 9 | 1010.3 |
| 20260506033051 | 41 | 231 | 0.0 | 0.0 | 0.00 | 0.00 | 0.00 | 9 | 1010.2 |
| 20260506031607 | 40 | 231 | 0.0 | 0.0 | 0.00 | 0.00 | 0.00 | 10 | 1010.1 |
| 20260506030008 | 40 | 231 | 0.0 | 0.0 | 0.00 | 0.00 | 0.00 | 10 | 1010.2 |
| 20260506024509 | 41 | 231 | 0.0 | 0.0 | 0.00 | 0.00 | 0.00 | 10 | 1010.1 |
| 20260506023033 | 41 | 230 | 0.0 | 0.0 | 0.00 | 0.00 | 0.00 | 11 | 1010.1 |
| 20260506021548 | 42 | 231 | 0.0 | 0.0 | 0.00 | 0.00 | 0.00 | 11 | 1010.1 |
| 20260506020100 | 41 | 230 | 0.0 | 0.0 | 0.00 | 0.00 | 0.00 | 11 | 1010.0 |
| 20260506014507 | 41 | 231 | 0.0 | 0.0 | 0.00 | 0.01 | 0.00 | 12 | 1010.0 |
| 20260506013022 | 41 | 231 | 0.0 | 0.0 | 0.00 | 0.01 | 0.00 | 12 | 1010.0 |
| 20260506011507 | 42 | 231 | 0.0 | 0.0 | 0.00 | 0.01 | 0.00 | 12 | 1010.0 |
| 20260506010030 | 42 | 231 | 0.0 | 0.0 | 0.00 | 0.01 | 0.00 | 13 | 1010.1 |
| 20260506004558 | 43 | 231 | 0.0 | 0.0 | 0.00 | 0.01 | 0.00 | 13 | 1010.3 |
| 20260506003103 | 43 | 231 | 0.0 | 0.0 | 0.00 | 0.01 | 0.00 | 13 | 1010.4 |
| 20260506001513 | 43 | 231 | 0.0 | 0.0 | 0.00 | 0.01 | 0.00 | 14 | 1010.4 |
| 20260506000036 | 44 | 230 | 0.0 | 0.0 | 0.00 | 0.01 | 0.00 | 14 | 1010.5 |
| 20260505234516 | 44 | 230 | 0.0 | 0.0 | 0.00 | 0.01 | 0.00 | 15 | 1010.5 |
| 20260505233025 | 45 | 231 | 0.0 | 0.0 | 0.00 | 0.01 | 0.00 | 15 | 1010.5 |
| 20260505231549 | 45 | 231 | 0.0 | 0.0 | 0.00 | 0.01 | 0.00 | 15 | 1010.5 |
| 20260505230037 | 46 | 231 | 0.0 | 0.0 | 0.00 | 0.01 | 0.00 | 16 | 1010.3 |
| 20260505224549 | 46 | 231 | 0.0 | 0.0 | 0.00 | 0.01 | 0.00 | 17 | 1010.5 |
| 20260505223048 | 46 | 231 | 0.0 | 0.0 | 0.00 | 0.01 | 0.00 | 18 | 1010.6 |
| 20260505221604 | 47 | 231 | 0.0 | 0.0 | 0.00 | 0.01 | 0.00 | 18 | 1010.6 |
| 20260505220112 | 47 | 230 | 0.0 | 0.0 | 0.00 | 0.01 | 0.00 | 20 | 1010.9 |
| 20260505214547 | 48 | 230 | 0.0 | 0.0 | 0.00 | 0.04 | 0.01 | 21 | 1010.9 |
| 20260505213106 | 49 | 231 | 0.0 | 0.0 | 0.00 | 0.04 | 0.01 | 23 | 1010.9 |
| 20260505211509 | 49 | 230 | 0.0 | 0.0 | 0.00 | 0.04 | 0.01 | 24 | 1010.8 |
| 20260505210020 | 50 | 230 | 0.0 | 0.0 | 0.00 | 0.04 | 0.01 | 27 | 1010.7 |
| 20260505204540 | 50 | 231 | 0.0 | 0.0 | 0.00 | 0.25 | 0.01 | 31 | 1010.4 |
| 20260505203057 | 50 | 230 | 0.0 | 0.0 | 0.00 | 0.25 | 0.01 | 36 | 1010.4 |
| 20260505201541 | 50 | 233 | 0.0 | 0.0 | 0.00 | 0.25 | 0.01 | 43 | 1010.0 |
| 20260505200040 | 50 | 233 | 0.0 | 0.0 | 0.00 | 0.25 | 0.01 | 48 | 1009.8 |
| 20260505194606 | 50 | 233 | 0.0 | 0.0 | 0.00 | 0.25 | 0.01 | 54 | 1009.6 |
| 20260505193034 | 51 | 233 | 0.0 | 0.0 | 0.00 | 0.25 | 0.01 | 61 | 1009.4 |
| 20260505191524 | 52 | 233 | 0.0 | 0.0 | 0.00 | 0.25 | 0.01 | 67 | 1009.3 |
| 20260505190032 | 53 | 233 | 0.0 | 0.0 | 0.00 | 0.25 | 0.01 | 69 | 1009.2 |
| 20260505184542 | 53 | 233 | 0.0 | 0.0 | 0.00 | 0.25 | 0.01 | 71 | 1009.0 |
| 20260505183046 | 54 | 244 | 0.0 | 0.0 | 0.00 | 0.25 | 0.01 | 72 | 1009.0 |
| 20260505181612 | 54 | 267 | 0.0 | 0.0 | 0.00 | 0.25 | 0.01 | 72 | 1009.1 |
| 20260505180010 | 55 | 245 | 0.0 | 0.0 | 0.00 | 0.25 | 0.01 | 73 | 1008.7 |
| 20260505174537 | 55 | 220 | 0.0 | 0.0 | 0.00 | 0.25 | 0.01 | 73 | 1008.7 |
| 20260505173039 | 56 | 219 | 0.0 | 0.0 | 0.00 | 0.25 | 0.01 | 73 | 1008.5 |
| 20260505171548 | 57 | 277 | 0.0 | 0.0 | 0.00 | 0.25 | 0.01 | 72 | 1008.7 |
| 20260505170014 | 58 | 244 | 0.0 | 0.0 | 0.00 | 0.25 | 0.01 | 71 | 1008.6 |
| 20260505164534 | 60 | 248 | 0.0 | 0.0 | 0.00 | 0.25 | 0.01 | 69 | 1008.1 |
| 20260505163116 | 61 | 221 | 0.0 | 0.0 | 0.00 | 0.25 | 0.01 | 70 | 1008.1 |
| 20260505161520 | 62 | 245 | 0.0 | 0.0 | 0.00 | 0.25 | 0.01 | 70 | 1008.0 |
| 20260505153112 | 64 | 249 | 0.0 | 0.0 | 0.00 | 0.25 | 0.01 | 67 | 1008.1 |
| 20260505151535 | 64 | 263 | 0.0 | 0.0 | 0.00 | 0.25 | 0.01 | 67 | 1008.1 |
| 20260505130104 | 62 | 260 | 0.0 | 0.0 | 0.00 | 0.25 | 0.01 | 72 | 1009.3 |
| 20260505124609 | 63 | 257 | 0.0 | 0.0 | 0.00 | 0.25 | 0.01 | 71 | 1009.3 |
| 20260505123005 | 63 | 260 | 0.0 | 0.0 | 0.00 | 0.25 | 0.01 | 71 | 1009.4 |
| 20260505121513 | 63 | 271 | 0.0 | 0.0 | 0.00 | 0.25 | 0.01 | 68 | 1009.7 |
| 20260505120053 | 61 | 277 | 0.0 | 0.0 | 0.00 | 0.25 | 0.01 | 62 | 1010.0 |
| 20260505114610 | 60 | 281 | 0.0 | 0.0 | 0.00 | 0.25 | 0.01 | 53 | 1010.0 |
| 20260505113017 | 58 | 263 | 0.0 | 0.0 | 0.00 | 0.25 | 0.01 | 52 | 1010.3 |
| 20260505111531 | 58 | 253 | 0.0 | 0.0 | 0.00 | 0.25 | 0.01 | 55 | 1010.4 |
| 20260505101550 | 58 | 233 | 0.0 | 0.0 | 0.00 | 0.25 | 0.01 | 55 | 1010.7 |
| 20260505100110 | 57 | 267 | 0.0 | 0.0 | 0.00 | 0.25 | 0.01 | 47 | 1010.8 |
| 20260505094611 | 56 | 250 | 0.0 | 0.0 | 0.00 | 0.25 | 0.01 | 46 | 1010.9 |
| 20260505093027 | 56 | 360 | 0.0 | 0.0 | 0.00 | 0.25 | 0.01 | 38 | 1010.9 |
| 20260505091544 | 55 | 233 | 0.0 | 0.0 | 0.00 | 0.25 | 0.01 | 35 | 1011.0 |
| 20260505090044 | 55 | 265 | 0.0 | 0.0 | 0.00 | 0.25 | 0.01 | 34 | 1011.0 |
| 20260505084603 | 56 | 161 | 0.0 | 0.0 | 0.00 | 0.25 | 0.01 | 35 | 1011.0 |
| 20260505083110 | 55 | 168 | 0.0 | 0.0 | 0.00 | 0.25 | 0.01 | 26 | 1011.0 |
| 20260505081602 | 53 | 360 | 0.0 | 0.0 | 0.00 | 0.25 | 0.01 | 19 | 1011.1 |
| 20260505080107 | 53 | 44 | 0.0 | 0.0 | 0.00 | 0.25 | 0.01 | 15 | 1011.2 |
| 20260505074502 | 52 | 55 | 0.0 | 0.0 | 0.00 | 0.25 | 0.01 | 10 | 1011.4 |
| 20260505073027 | 51 | 55 | 0.0 | 0.0 | 0.00 | 0.25 | 0.01 | 5 | 1011.6 |
| 20260505071604 | 51 | 59 | 0.0 | 0.0 | 0.00 | 0.25 | 0.01 | 3 | 1011.3 |
| 20260505070019 | 50 | 61 | 0.0 | 0.0 | 0.00 | 0.25 | 0.01 | 100 | 1011.5 |
| 20260505064533 | 49 | 58 | 0.0 | 0.0 | 0.00 | 0.25 | 0.01 | 100 | 1011.6 |
| 20260505063041 | 49 | 58 | 0.0 | 0.0 | 0.00 | 0.25 | 0.01 | 1011.7 | |
| 20260505061609 | 49 | 58 | 0.0 | 0.0 | 0.00 | 0.25 | 0.01 | 100 | 1011.6 |
| 20260505060036 | 49 | 68 | 0.0 | 0.0 | 0.00 | 0.25 | 0.01 | 100 | 1011.7 |
| 20260505054535 | 48 | 69 | 0.0 | 0.0 | 0.00 | 0.25 | 0.01 | 100 | 1011.5 |
| 20260505053051 | 48 | 68 | 0.0 | 0.0 | 0.00 | 0.25 | 0.01 | 100 | 1011.2 |